Total_Precipitation_Accumulation
1.58 1.70 2.03 1.89 1.80 2.02 2.25 2.29 2.50 2.61 2.42 2.33 2.32 2.26 2.33 2.68 2.77 2.67 2.61 2.79 3.21 3.75 4.13 4.27 4.33 4.25 4.21 4.03 3.39 2.88 2.54 2.49 2.48 2.46 2.35 2.28 2.34 2.53 2.61 2.76 2.79 2.10 1.99
1.42 1.61 1.86 1.83 1.75 1.99 2.22 2.32 2.43 2.51 2.42 2.32 2.25 2.27 2.44 2.73 2.70 2.59 2.56 2.78 3.07 3.52 3.75 3.66 3.63 3.49 3.34 3.14 2.82 2.62 2.57 2.65 2.79 2.82 2.90 2.69 2.74 2.81 2.69 2.72 2.84 2.10 2.03
1.43 1.48 1.57 1.72 1.62 1.79 1.97 2.01 2.11 2.34 2.51 2.48 2.23 2.22 2.44 2.68 2.83 2.90 2.89 2.94 3.14 3.51 3.67 3.52 3.29 3.12 2.96 2.82 2.58 2.49 2.50 2.75 3.06 3.31 3.61 2.74 2.28 2.79 2.71 2.67 2.39 1.94 1.91
1.12 1.17 1.33 1.56 1.59 1.62 1.77 1.84 1.93 2.09 2.26 2.30 2.17 2.11 2.34 2.62 2.81 2.95 3.01 2.95 3.11 3.45 3.82 3.68 3.39 3.17 2.92 2.68 2.52 2.50 2.59 2.89 3.14 3.56 3.41 2.45 1.80 2.20 2.42 2.35 2.05 1.74 1.68
0.97 1.06 1.41 1.55 1.53 1.53 1.59 1.67 1.81 1.89 1.97 2.05 2.06 2.16 2.41 2.67 2.87 2.94 2.88 2.88 2.97 3.25 3.59 3.67 3.25 2.81 2.58 2.49 2.56 2.66 2.79 3.06 3.32 3.24 2.54 2.55 2.46 2.35 2.17 2.07 1.94 1.70 1.55
1.06 1.11 1.34 1.52 1.43 1.45 1.50 1.54 1.70 1.79 1.88 2.01 2.08 2.17 2.52 2.75 2.85 2.84 2.64 2.61 2.78 2.94 3.18 3.25 2.88 2.46 2.35 2.46 2.63 2.76 2.98 3.22 3.16 2.42 2.12 2.22 2.10 2.19 2.15 2.06 1.87 1.69 1.54
0.98 1.17 1.33 1.41 1.28 1.28 1.30 1.39 1.61 1.74 1.87 2.04 2.09 2.25 2.53 2.79 2.87 2.86 2.68 2.78 2.77 2.87 3.02 2.86 2.64 2.49 2.60 2.64 2.71 2.78 3.05 3.20 2.58 2.08 2.17 2.39 2.10 2.07 2.31 2.30 2.01 1.71 1.43
0.92 1.10 1.31 1.34 1.20 1.17 1.24 1.37 1.53 1.71 1.85 2.00 2.05 2.20 2.50 2.80 2.82 2.62 2.57 2.72 2.64 2.75 2.83 2.65 2.45 2.37 2.54 2.65 2.64 2.76 2.92 2.80 2.10 1.79 1.90 2.07 1.82 2.01 2.42 2.42 2.24 1.98 1.62
0.94 1.06 1.21 1.28 1.20 1.19 1.30 1.51 1.64 1.72 1.88 2.01 1.98 2.11 2.49 2.68 2.71 2.56 2.48 2.53 2.56 2.68 2.53 2.37 2.37 2.25 2.31 2.55 2.60 2.77 2.83 2.71 2.08 1.88 1.68 1.79 1.74 2.06 2.44 2.37 2.21 2.11 1.80
1.10 1.20 1.18 1.23 1.14 1.12 1.27 1.63 1.86 1.92 2.03 2.13 2.17 2.32 2.69 2.76 2.72 2.57 2.34 2.41 2.45 2.46 2.40 2.36 2.34 2.30 2.35 2.60 2.82 2.97 2.89 2.43 1.92 1.78 1.76 1.65 1.83 2.25 2.57 2.45 2.35 2.26 2.04
1.34 1.45 1.37 1.39 1.21 1.24 1.31 1.60 1.94 2.06 2.21 2.42 2.54 2.74 3.13 3.25 2.95 2.91 2.53 2.65 2.61 2.58 2.66 2.69 2.63 2.62 2.56 2.76 3.07 3.09 2.72 2.32 2.29 1.97 1.82 1.75 2.08 2.51 2.74 2.78 2.66 2.53 2.35
1.57 1.42 1.43 1.51 1.40 1.50 1.49 1.76 2.31 2.36 2.55 2.83 2.94 2.91 3.24 3.39 3.37 2.89 3.04 3.32 3.34 3.37 3.45 3.51 3.47 3.23 2.77 2.63 3.10 3.41 2.78 2.56 2.45 2.10 1.89 2.01 2.32 2.70 2.86 2.92 2.67 2.56 2.46
1.60 1.46 1.57 1.70 1.82 1.87 2.14 1.94 2.12 2.53 2.86 3.01 3.16 3.31 3.48 3.26 3.13 3.04 3.34 3.78 3.87 3.85 3.83 3.87 3.86 3.32 3.07 3.14 3.32 3.33 2.96 2.85 2.60 2.22 2.35 2.53 2.72 3.12 3.22 3.00 2.76 2.60 2.40
2.08 2.07 2.03 2.22 2.47 2.48 2.25 2.20 2.07 2.19 2.47 2.87 3.18 3.14 3.32 3.66 3.62 3.36 3.44 3.58 3.72 3.84 4.13 3.85 3.76 3.66 3.57 3.33 3.18 3.26 3.07 2.93 2.80 2.76 2.97 3.03 3.03 3.37 3.58 3.25 2.98 2.80 2.60
2.85 3.00 2.97 2.96 2.91 2.96 2.96 2.82 2.37 2.51 2.48 2.61 3.08 3.16 3.19 3.61 3.83 3.71 3.60 3.74 3.41 3.46 3.87 4.00 3.65 3.69 3.78 3.58 3.26 3.16 3.19 3.05 3.05 2.92 3.08 3.27 3.07 3.15 3.50 3.44 3.30 3.09 2.93
3.60 4.10 3.89 3.74 3.50 3.40 3.45 3.42 3.34 2.99 2.87 2.71 3.03 3.18 3.28 3.63 3.85 3.85 3.76 3.77 3.37 3.23 3.46 3.65 3.55 3.72 3.69 3.61 3.23 3.01 2.98 3.17 3.18 2.96 3.04 3.35 3.23 2.90 3.06 3.32 3.53 3.55 3.34
4.24 4.84 4.64 4.50 4.50 4.30 4.22 3.89 3.49 3.21 3.02 3.22 3.41 3.57 3.61 3.67 3.97 4.06 3.94 3.68 3.50 3.47 3.53 3.51 3.53 3.84 3.61 3.48 3.29 3.20 3.12 3.15 3.00 2.94 2.98 3.22 2.93 2.74 2.73 2.83 3.19 3.51 3.76
4.40 4.88 5.26 4.91 5.32 5.29 5.08 4.67 4.18 3.87 3.85 3.79 3.70 3.85 3.66 3.54 3.67 4.01 3.75 3.42 3.56 3.63 3.72 3.72 3.68 3.85 3.87 3.94 3.81 3.58 3.30 3.20 2.63 2.56 2.65 2.75 2.88 2.49 2.61 2.82 2.92 3.09 3.65
4.65 5.23 5.74 5.95 6.04 5.66 5.36 5.06 4.87 4.54 4.24 3.81 3.41 3.33 3.23 2.99 2.95 3.14 3.05 3.02 3.06 3.22 3.17 2.95 3.34 3.56 3.77 3.96 3.69 3.51 3.12 2.97 2.71 2.54 2.60 2.38 2.52 2.56 2.60 2.65 2.82 2.86 3.37
4.75 5.64 6.13 6.31 5.93 5.52 5.18 4.80 4.72 4.37 3.99 3.62 3.21 2.94 2.76 2.73 2.56 2.74 2.57 2.57 2.75 3.00 3.04 3.09 3.33 3.26 3.20 3.37 3.03 3.04 2.98 2.72 2.69 2.64 2.44 2.36 2.34 2.30 2.44 2.63 2.86 2.50 2.99
4.80 5.79 6.26 6.15 5.58 5.06 4.62 4.23 3.99 3.69 3.42 3.28 2.95 2.59 2.56 2.53 2.55 2.84 2.55 2.80 2.78 2.87 2.88 2.79 2.91 2.88 2.64 2.77 3.23 3.18 2.84 2.61 2.61 2.49 2.37 2.46 2.25 2.23 2.44 2.72 2.94 2.97 2.68
4.14 4.92 5.32 5.08 4.50 3.86 3.58 3.50 3.45 3.41 3.04 2.81 2.70 2.65 2.37 2.39 2.47 2.54 2.68 2.49 2.50 2.66 2.58 2.55 2.84 2.82 2.49 2.58 3.05 3.29 3.15 3.19 2.92 2.24 2.20 2.34 2.30 2.34 2.42 2.49 2.83 3.09 2.94
3.61 3.61 3.78 3.74 3.33 3.02 2.91 2.90 2.95 3.13 2.90 2.60 2.51 2.45 2.22 2.13 2.11 2.25 2.33 2.45 2.54 2.43 2.50 2.54 2.59 2.71 2.66 2.48 2.54 3.10 3.09 3.00 2.87 2.55 2.19 2.11 2.29 2.51 2.48 2.54 2.55 2.68 2.75
2.72 2.52 2.55 2.69 2.61 2.60 2.52 2.52 2.44 2.33 2.33 2.23 2.21 2.17 2.13 1.99 1.90 1.82 1.96 2.19 2.37 2.33 2.58 2.31 2.37 2.60 2.71 2.45 2.44 2.52 2.56 2.66 2.81 2.63 2.26 2.01 2.05 2.16 2.31 2.27 2.43 2.61 2.68
1.81 1.84 2.03 2.36 2.48 2.41 2.35 2.47 2.49 2.21 2.08 2.00 2.03 2.16 2.11 1.97 1.81 1.67 1.77 2.01 2.18 2.26 2.38 2.40 2.66 2.58 2.48 2.42 2.37 2.44 2.53 2.56 2.42 2.48 2.40 2.13 2.00 1.84 1.94 2.13 2.35 2.58 2.59
1.25 1.38 1.62 2.09 2.32 2.22 2.18 2.21 2.19 2.15 2.12 2.03 1.97 2.04 2.00 1.92 1.90 1.89 1.84 1.97 2.00 2.06 2.15 2.26 2.49 2.50 2.44 2.45 2.30 2.21 2.42 2.53 2.50 2.56 2.38 2.12 1.96 1.72 1.71 1.86 2.22 2.55 2.65